| time (UTC) | temp F | wind direction | speed MPH | gust MPH | rain 1hr in | rain 24hr in | rain mn in | humidity % | barometer mb |
| 20260503054145 | 45 | 31 | 2.0 | 4.0 | 0.00 | 0.00 | 0.00 | 53 | 1015.3 |
| 20260503053144 | 45 | 31 | 1.0 | 3.0 | 0.00 | 0.00 | 0.00 | 50 | 1015.5 |
| 20260503052144 | 46 | 31 | 1.0 | 3.0 | 0.00 | 0.00 | 0.00 | 47 | 1015.5 |
| 20260503051145 | 46 | 31 | 1.0 | 4.0 | 0.00 | 0.00 | 0.00 | 47 | 1015.5 |
| 20260503050144 | 45 | 17 | 3.0 | 6.0 | 0.00 | 0.00 | 0.00 | 48 | 1015.5 |
| 20260503045144 | 46 | 33 | 3.0 | 6.0 | 0.00 | 0.00 | 0.00 | 47 | 1015.5 |
| 20260503044215 | 46 | 28 | 3.0 | 6.0 | 0.00 | 0.00 | 0.00 | 51 | 1015.5 |
| 20260503044144 | 46 | 28 | 3.0 | 6.0 | 0.00 | 0.00 | 0.00 | 51 | 1015.5 |
| 20260503043216 | 46 | 29 | 3.0 | 5.0 | 0.00 | 0.00 | 0.00 | 48 | 1015.4 |
| 20260503043144 | 46 | 29 | 3.0 | 5.0 | 0.00 | 0.00 | 0.00 | 48 | 1015.4 |
| 20260503042144 | 46 | 356 | 4.0 | 6.0 | 0.00 | 0.00 | 0.00 | 50 | 1015.3 |
| 20260503041144 | 46 | 333 | 1.0 | 6.0 | 0.00 | 0.00 | 0.00 | 52 | 1015.3 |
| 20260503040144 | 46 | 328 | 1.0 | 4.0 | 0.00 | 0.00 | 0.00 | 53 | 1015.3 |
| 20260503035144 | 46 | 0 | 0.0 | 3.0 | 0.00 | 0.00 | 0.00 | 54 | 1015.3 |
| 20260503034144 | 46 | 328 | 2.0 | 4.0 | 0.00 | 0.00 | 0.00 | 55 | 1015.1 |
| 20260503033144 | 46 | 328 | 1.0 | 2.0 | 0.00 | 0.00 | 0.00 | 55 | 1014.9 |
| 20260503032227 | 46 | 0 | 0.0 | 2.0 | 0.00 | 0.00 | 0.00 | 55 | 1014.8 |
| 20260503032144 | 46 | 0 | 0.0 | 2.0 | 0.00 | 0.00 | 0.00 | 55 | 1014.8 |
| 20260503031144 | 46 | 328 | 1.0 | 3.0 | 0.00 | 0.00 | 0.00 | 54 | 1014.7 |
| 20260503030144 | 45 | 328 | 1.0 | 5.0 | 0.00 | 0.00 | 0.00 | 52 | 1014.7 |
| 20260503025146 | 45 | 322 | 1.0 | 5.0 | 0.00 | 0.00 | 0.00 | 52 | 1014.7 |
| 20260503024144 | 45 | 320 | 2.0 | 6.0 | 0.00 | 0.00 | 0.00 | 52 | 1014.6 |
| 20260503023144 | 46 | 329 | 3.0 | 8.0 | 0.00 | 0.00 | 0.00 | 50 | 1014.7 |
| 20260503022144 | 46 | 344 | 3.0 | 6.0 | 0.00 | 0.00 | 0.00 | 52 | 1014.7 |
| 20260503021144 | 46 | 348 | 4.0 | 7.0 | 0.00 | 0.00 | 0.00 | 53 | 1014.7 |
| 20260503020144 | 47 | 311 | 3.0 | 10.0 | 0.00 | 0.00 | 0.00 | 55 | 1014.8 |
| 20260503015218 | 48 | 352 | 5.0 | 10.0 | 0.00 | 0.00 | 0.00 | 55 | 1014.8 |
| 20260503015144 | 48 | 352 | 5.0 | 10.0 | 0.00 | 0.00 | 0.00 | 55 | 1014.8 |
| 20260503014144 | 48 | 354 | 3.0 | 6.0 | 0.00 | 0.00 | 0.00 | 51 | 1014.7 |
| 20260503013144 | 48 | 59 | 3.0 | 7.0 | 0.00 | 0.00 | 0.00 | 50 | 1014.8 |
| 20260503012215 | 48 | 32 | 5.0 | 8.0 | 0.00 | 0.00 | 0.00 | 49 | 1014.9 |
| 20260503012144 | 48 | 32 | 5.0 | 8.0 | 0.00 | 0.00 | 0.00 | 49 | 1014.9 |
| 20260503011144 | 48 | 72 | 2.0 | 8.0 | 0.00 | 0.00 | 0.00 | 50 | 1014.9 |
| 20260503010220 | 49 | 49 | 3.0 | 6.0 | 0.00 | 0.00 | 0.00 | 49 | 1014.9 |
| 20260503010144 | 49 | 49 | 3.0 | 6.0 | 0.00 | 0.00 | 0.00 | 49 | 1014.9 |
| 20260503005144 | 50 | 20 | 4.0 | 9.0 | 0.00 | 0.00 | 0.00 | 47 | 1015.0 |
| 20260503004144 | 50 | 17 | 5.0 | 10.0 | 0.00 | 0.00 | 0.00 | 47 | 1015.0 |
| 20260503003144 | 51 | 332 | 5.0 | 12.0 | 0.00 | 0.00 | 0.00 | 46 | 1014.9 |
| 20260503002144 | 51 | 309 | 4.0 | 11.0 | 0.00 | 0.00 | 0.00 | 44 | 1014.8 |
| 20260503001144 | 52 | 302 | 4.0 | 12.0 | 0.00 | 0.00 | 0.00 | 44 | 1014.8 |
| 20260503000218 | 51 | 308 | 5.0 | 11.0 | 0.00 | 0.00 | 0.00 | 45 | 1014.8 |
| 20260503000144 | 51 | 308 | 5.0 | 11.0 | 0.00 | 0.00 | 0.00 | 45 | 1014.8 |
| 20260502235144 | 51 | 295 | 5.0 | 13.0 | 0.00 | 0.00 | 0.00 | 45 | 1014.8 |
| 20260502234217 | 52 | 322 | 5.0 | 13.0 | 0.00 | 0.00 | 0.00 | 1014.9 | |
| 20260502234144 | 52 | 322 | 5.0 | 13.0 | 0.00 | 0.00 | 0.00 | 1014.9 | |
| 20260502233144 | 52 | 314 | 7.0 | 12.0 | 0.00 | 0.00 | 0.00 | 43 | 1015.0 |
| 20260502232144 | 52 | 328 | 3.0 | 12.0 | 0.00 | 0.00 | 0.00 | 41 | 1015.2 |
| 20260502231351 | 53 | 323 | 2.0 | 8.0 | 0.00 | 0.00 | 0.00 | 36 | 1015.1 |
| 20260502231320 | 53 | 307 | 4.0 | 9.0 | 0.00 | 0.00 | 0.00 | 1015.2 | |
| 20260502231144 | 53 | 323 | 2.0 | 8.0 | 0.00 | 0.00 | 0.00 | 36 | 1015.1 |
| 20260502230144 | 53 | 307 | 4.0 | 9.0 | 0.00 | 0.00 | 0.00 | 1015.2 | |
| 20260502225152 | 54 | 328 | 2.0 | 9.0 | 0.00 | 0.00 | 0.00 | 35 | 1014.7 |
| 20260502225144 | 53 | 26 | 5.0 | 10.0 | 0.00 | 0.00 | 0.00 | 34 | 1015.3 |
| 20260502224144 | 54 | 328 | 2.0 | 9.0 | 0.00 | 0.00 | 0.00 | 35 | 1014.7 |
| 20260502223144 | 54 | 309 | 3.0 | 9.0 | 0.00 | 0.00 | 0.00 | 35 | 1014.9 |
| 20260502222144 | 53 | 328 | 3.0 | 11.0 | 0.00 | 0.00 | 0.00 | 34 | 1014.9 |
| 20260502221147 | 53 | 297 | 4.0 | 11.0 | 0.00 | 0.00 | 0.00 | 36 | 1015.0 |
| 20260502220144 | 51 | 17 | 2.0 | 8.0 | 0.00 | 0.00 | 0.00 | 38 | 1015.2 |
| 20260502215144 | 51 | 20 | 5.0 | 10.0 | 0.00 | 0.00 | 0.00 | 37 | 1015.3 |
| 20260502214144 | 50 | 5 | 2.0 | 9.0 | 0.00 | 0.00 | 0.00 | 39 | 1015.5 |
| 20260502213144 | 51 | 41 | 3.0 | 9.0 | 0.00 | 0.00 | 0.00 | 36 | 1015.6 |
| 20260502212144 | 51 | 326 | 2.0 | 7.0 | 0.00 | 0.00 | 0.00 | 37 | 1015.7 |
| 20260502211144 | 51 | 338 | 1.0 | 8.0 | 0.00 | 0.00 | 0.00 | 39 | 1015.7 |
| 20260502210144 | 51 | 9 | 3.0 | 7.0 | 0.00 | 0.00 | 0.00 | 37 | 1015.7 |
| 20260502205144 | 51 | 30 | 3.0 | 8.0 | 0.00 | 0.00 | 0.00 | 37 | 1015.8 |
| 20260502204144 | 51 | 3 | 4.0 | 7.0 | 0.00 | 0.00 | 0.00 | 37 | 1015.8 |
| 20260502203144 | 52 | 319 | 3.0 | 8.0 | 0.00 | 0.00 | 0.00 | 37 | 1015.7 |
| 20260502202144 | 52 | 327 | 4.0 | 7.0 | 0.00 | 0.00 | 0.00 | 37 | 1015.9 |
| 20260502201224 | 51 | 299 | 3.0 | 6.0 | 0.00 | 0.00 | 0.00 | 40 | 1015.9 |
| 20260502201144 | 51 | 299 | 3.0 | 6.0 | 0.00 | 0.00 | 0.00 | 40 | 1015.9 |
| 20260502200144 | 51 | 308 | 3.0 | 9.0 | 0.00 | 0.00 | 0.00 | 37 | 1015.9 |
| 20260502195144 | 51 | 14 | 2.0 | 6.0 | 0.00 | 0.00 | 0.00 | 37 | 1015.9 |
| 20260502194220 | 51 | 315 | 3.0 | 6.0 | 0.00 | 0.00 | 0.00 | 35 | 1015.9 |
| 20260502194144 | 51 | 315 | 3.0 | 6.0 | 0.00 | 0.00 | 0.00 | 35 | 1015.9 |
| 20260502193144 | 51 | 316 | 3.0 | 9.0 | 0.00 | 0.00 | 0.00 | 35 | 1016.1 |
| 20260502192144 | 52 | 303 | 3.0 | 8.0 | 0.00 | 0.00 | 0.00 | 37 | 1016.0 |
| 20260502191144 | 52 | 287 | 2.0 | 8.0 | 0.00 | 0.00 | 0.00 | 37 | 1016.1 |
| 20260502190144 | 52 | 320 | 3.0 | 9.0 | 0.00 | 0.00 | 0.00 | 36 | 1016.1 |
| 20260502185144 | 52 | 308 | 3.0 | 6.0 | 0.00 | 0.00 | 0.00 | 36 | 1016.3 |
| 20260502184144 | 53 | 283 | 2.0 | 6.0 | 0.00 | 0.00 | 0.00 | 33 | 1015.6 |
| 20260502183144 | 52 | 270 | 2.0 | 6.0 | 0.00 | 0.00 | 0.00 | 36 | 1015.7 |
| 20260502182144 | 52 | 267 | 2.0 | 7.0 | 0.00 | 0.00 | 0.00 | 37 | 1015.6 |
| 20260502181144 | 52 | 290 | 2.0 | 4.0 | 0.00 | 0.00 | 0.00 | 37 | 1015.7 |
| 20260502180143 | 52 | 288 | 2.0 | 4.0 | 0.00 | 0.00 | 0.00 | 37 | 1015.7 |
| 20260502170143 | 50 | 162 | 2.0 | 5.0 | 0.00 | 0.00 | 0.00 | 28 | 1015.8 |
| 20260502164144 | 50 | 195 | 1.0 | 3.0 | 0.00 | 0.00 | 0.00 | 28 | 1015.6 |
| 20260502163219 | 50 | 205 | 1.0 | 5.0 | 0.00 | 0.00 | 0.00 | 28 | 1015.6 |
| 20260502163143 | 50 | 205 | 1.0 | 5.0 | 0.00 | 0.00 | 0.00 | 28 | 1015.6 |
| 20260502162143 | 50 | 240 | 1.0 | 7.0 | 0.00 | 0.00 | 0.00 | 29 | 1015.6 |
| 20260502161143 | 49 | 219 | 1.0 | 4.0 | 0.00 | 0.00 | 0.00 | 30 | 1015.4 |
| 20260502160143 | 49 | 184 | 1.0 | 5.0 | 0.00 | 0.00 | 0.00 | 30 | 1015.4 |
| 20260502152143 | 46 | 226 | 3.0 | 7.0 | 0.00 | 0.00 | 0.00 | 32 | 1015.3 |
| 20260502151143 | 46 | 224 | 3.0 | 9.0 | 0.00 | 0.00 | 0.00 | 32 | 1015.3 |
| 20260502150143 | 46 | 224 | 3.0 | 9.0 | 0.00 | 0.00 | 0.00 | 33 | 1015.0 |
| 20260502130143 | 43 | 204 | 3.0 | 8.0 | 0.00 | 0.00 | 0.00 | 41 | 1014.2 |
| 20260502123143 | 43 | 214 | 5.0 | 15.0 | 0.00 | 0.00 | 0.00 | 43 | 1014.2 |
| 20260502122143 | 43 | 207 | 6.0 | 15.0 | 0.00 | 0.00 | 0.00 | 43 | 1014.2 |
| 20260502121143 | 43 | 214 | 8.0 | 17.0 | 0.00 | 0.00 | 0.00 | 45 | 1014.2 |
| 20260502120143 | 43 | 203 | 6.0 | 14.0 | 0.00 | 0.00 | 0.00 | 45 | 1014.2 |
| 20260502115143 | 43 | 203 | 7.0 | 13.0 | 0.00 | 0.00 | 0.00 | 44 | 1014.3 |
| 20260502114143 | 43 | 200 | 6.0 | 12.0 | 0.00 | 0.00 | 0.00 | 45 | 1014.3 |
| 20260502113143 | 43 | 179 | 6.0 | 14.0 | 0.00 | 0.00 | 0.00 | 44 | 1014.3 |
| 20260502112143 | 44 | 202 | 8.0 | 14.0 | 0.00 | 0.00 | 0.00 | 45 | 1014.3 |
| 20260502111144 | 43 | 189 | 5.0 | 17.0 | 0.00 | 0.00 | 0.00 | 45 | 1014.3 |
| 20260502110143 | 43 | 210 | 8.0 | 16.0 | 0.00 | 0.00 | 0.00 | 45 | 1014.4 |
| 20260502105143 | 43 | 203 | 7.0 | 19.0 | 0.00 | 0.00 | 0.00 | 47 | 1014.4 |
| 20260502104143 | 43 | 205 | 5.0 | 12.0 | 0.00 | 0.00 | 0.00 | 48 | 1014.5 |
| 20260502103225 | 42 | 195 | 3.0 | 9.0 | 0.00 | 0.00 | 0.00 | 50 | 1014.3 |
| 20260502103143 | 42 | 195 | 3.0 | 9.0 | 0.00 | 0.00 | 0.00 | 50 | 1014.3 |
| 20260502102143 | 42 | 196 | 1.0 | 9.0 | 0.00 | 0.00 | 0.00 | 50 | 1014.5 |
| 20260502101143 | 42 | 193 | 4.0 | 7.0 | 0.00 | 0.00 | 0.00 | 49 | 1014.6 |
| 20260502100143 | 42 | 198 | 2.0 | 8.0 | 0.00 | 0.00 | 0.00 | 49 | 1014.6 |
| 20260502091143 | 42 | 231 | 4.0 | 8.0 | 0.00 | 0.00 | 0.00 | 50 | 1014.8 |
| 20260502090143 | 42 | 238 | 5.0 | 11.0 | 0.00 | 0.00 | 0.00 | 49 | 1015.0 |
| 20260502071143 | 43 | 232 | 4.0 | 6.0 | 0.00 | 0.00 | 0.00 | 27 | 1015.2 |
| 20260502070145 | 44 | 234 | 3.0 | 6.0 | 0.00 | 0.00 | 0.00 | 26 | 1015.1 |
| 20260502065143 | 44 | 219 | 3.0 | 5.0 | 0.00 | 0.00 | 0.00 | 21 | 1015.1 |
| 20260502064143 | 43 | 219 | 3.0 | 7.0 | 0.00 | 0.00 | 0.00 | 22 | 1015.3 |
| 20260502063143 | 43 | 216 | 4.0 | 8.0 | 0.00 | 0.00 | 0.00 | 18 | 1015.2 |
| 20260502062143 | 44 | 222 | 3.0 | 6.0 | 0.00 | 0.00 | 0.00 | 15 | 1015.2 |
| 20260502061143 | 44 | 200 | 3.0 | 8.0 | 0.00 | 0.00 | 0.00 | 16 | 1015.2 |
| 20260502060145 | 44 | 175 | 3.0 | 7.0 | 0.00 | 0.00 | 0.00 | 18 | 1015.3 |